Satellite: RESURS Catalog number: 25394 Epoch time: 06298.75593943 Element set: 0502 Inclination: 098.4789 deg RA of node: 357.1404 deg Eccentricity: 0.0001777 Arg of perigee: 125.3015 deg Mean anomaly: 234.8331 deg Mean motion: 14.24115085 rev/day Decay rate: 5.0e-08 rev/day^2 Epoch rev: 43098 Checksum: 303
Satellite: FENGYUN1 Catalog number: 25730 Epoch time: 06298.80715408 Element set: 857 Inclination: 098.6376 deg RA of node: 286.4852 deg Eccentricity: 0.0015005 Arg of perigee: 126.4566 deg Mean anomaly: 233.7982 deg Mean motion: 14.11818474 rev/day Decay rate: 2.64e-06 rev/day^2 Epoch rev: 38444 Checksum: 328
Satellite: OKEAN-0 Catalog number: 25860 Epoch time: 06298.60253855 Element set: 0887 Inclination: 097.7325 deg RA of node: 306.8570 deg Eccentricity: 0.0001859 Arg of perigee: 066.1307 deg Mean anomaly: 294.0092 deg Mean motion: 14.73397824 rev/day Decay rate: 6.8e-07 rev/day^2 Epoch rev: 39095 Checksum: 336
Satellite: NOAA-16 Catalog number: 26536 Epoch time: 06299.20418012 Element set: 108 Inclination: 099.0866 deg RA of node: 267.4726 deg Eccentricity: 0.0011121 Arg of perigee: 109.4355 deg Mean anomaly: 250.8030 deg Mean motion: 14.12376460 rev/day Decay rate: -1.04e-06 rev/day^2 Epoch rev: 31407 Checksum: 270
Satellite: NOAA-17 Catalog number: 27453 Epoch time: 06299.37327967 Element set: 128 Inclination: 098.6101 deg RA of node: 008.9585 deg Eccentricity: 0.0012395 Arg of perigee: 056.9619 deg Mean anomaly: 303.2763 deg Mean motion: 14.23821444 rev/day Decay rate: 2.91e-06 rev/day^2 Epoch rev: 22544 Checksum: 322
Satellite: NOAA-18 Catalog number: 28654 Epoch time: 06299.25261585 Element set: 692 Inclination: 098.8018 deg RA of node: 239.7888 deg Eccentricity: 0.0013774 Arg of perigee: 208.8442 deg Mean anomaly: 151.1986 deg Mean motion: 14.11004221 rev/day Decay rate: 4.54e-06 rev/day^2 Epoch rev: 7386 Checksum: 334
/EX SB KEPS @ AMSAT $ORB06299.M Orbital Elements 06299.MISC
HR AMSAT ORBITAL ELEMENTS FOR MANNED AND MISCELLANEOUS SATELLITES FROM WA5QGD FORT WORTH,TX October 26, 2006 Send SUBSCRIBE KEPS/UNSUBSCRIBE KEPS to majordomo@amsat.org only BID: ORB06299.M TO ALL RADIO AMATEURS BT
Satellite: HUBBLE Catalog number: 20580 Epoch time: 06298.36596241 Element set: 0731 Inclination: 028.4698 deg RA of node: 281.2264 deg Eccentricity: 0.0003888 Arg of perigee: 129.4972 deg Mean anomaly: 230.5962 deg Mean motion: 15.00115749 rev/day Decay rate: 4.46e-06 rev/day^2 Epoch rev: 70466 Checksum: 316
Satellite: UARS Catalog number: 21701 Epoch time: 06298.94060996 Element set: 0925 Inclination: 056.9744 deg RA of node: 248.3222 deg Eccentricity: 0.0106635 Arg of perigee: 100.6383 deg Mean anomaly: 260.6681 deg Mean motion: 15.45062088 rev/day Decay rate: 5.782e-05 rev/day^2 Epoch rev: 82950 Checksum: 317
Satellite: PO-34 Catalog number: 25520 Epoch time: 06298.95755991 Element set: 0623 Inclination: 028.4613 deg RA of node: 236.2245 deg Eccentricity: 0.0005458 Arg of perigee: 220.2830 deg Mean anomaly: 139.7361 deg Mean motion: 15.16820618 rev/day Decay rate: 6.21e-06 rev/day^2 Epoch rev: 44192 Checksum: 301
Satellite: ISS Catalog number: 25544 Epoch time: 06299.99097506 Element set: 940 Inclination: 051.6340 deg RA of node: 228.3352 deg Eccentricity: 0.0012359 Arg of perigee: 139.6907 deg Mean anomaly: 317.7007 deg Mean motion: 15.77293005 rev/day Decay rate: 1.8390e-04 rev/day^2 Epoch rev: 45395 Checksum: 321
Satellite: OO-38 Catalog number: 26063 Epoch time: 06298.81657334 Element set: 749 Inclination: 100.2002 deg RA of node: 253.4303 deg Eccentricity: 0.0037240 Arg of perigee: 099.2477 deg Mean anomaly: 261.2905 deg Mean motion: 14.35781651 rev/day Decay rate: 1.1e-07 rev/day^2 Epoch rev: 35341 Checksum: 284
Satellite: NO-45 Catalog number: 26932 Epoch time: 06298.77741861 Element set: 0451 Inclination: 067.0571 deg RA of node: 031.0298 deg Eccentricity: 0.0005243 Arg of perigee: 234.3064 deg Mean anomaly: 125.7549 deg Mean motion: 14.29537903 rev/day Decay rate: -5.3e-07 rev/day^2 Epoch rev: 26463 Checksum: 309
Satellite: UWE-1 Catalog number: 28892 Epoch time: 06299.35713415 Element set: 585 Inclination: 098.1473 deg RA of node: 195.3407 deg Eccentricity: 0.0018164 Arg of perigee: 119.3078 deg Mean anomaly: 240.9954 deg Mean motion: 14.59410387 rev/day Decay rate: 9.3e-07 rev/day^2 Epoch rev: 5310 Checksum: 320
Satellite: CO-58 Catalog number: 28895 Epoch time: 06299.34369748 Element set: 569 Inclination: 098.1507 deg RA of node: 195.4543 deg Eccentricity: 0.0018553 Arg of perigee: 118.7230 deg Mean anomaly: 241.5804 deg Mean motion: 14.59459715 rev/day Decay rate: -5.0e-08 rev/day^2 Epoch rev: 5298 Checksum: 356
Satellite: NCUBE2 Catalog number: 28897 Epoch time: 06297.18186691 Element set: 0138 Inclination: 098.1474 deg RA of node: 193.3051 deg Eccentricity: 0.0017692 Arg of perigee: 128.1265 deg Mean anomaly: 232.1530 deg Mean motion: 14.59616881 rev/day Decay rate: 1.69e-06 rev/day^2 Epoch rev: 04494 Checksum: 328
/EX